EW3511 Weather Reports


time (UTC)temp
C
wind
direction
speed
KPH
gust
KPH
rain 1hr
cm
rain 24hr
cm
rain mn
cm
humidity
%
barometer
mb
20260508200553 13 68 1.6 3.2 0.00 0.00 0.00 73 1015.6
20260508195555 13 59 1.6 4.8 0.00 0.00 0.00 73 1015.4
20260508194554 13 68 1.6 3.2 0.00 0.00 0.00 72 1015.4
20260508193635 13 54 1.6 3.2 0.00 0.00 0.00 72 1015.2
20260508192555 13 60 1.6 4.8 0.00 0.00 0.00 73 1015.2
20260508191555 14 64 0.0 3.2 0.00 0.00 0.00 73 1014.9
20260508190557 14 65 0.0 1.6 0.00 0.00 0.00 72 1014.7
20260508185557 14 61 1.6 3.2 0.00 0.00 0.00 71 1014.6
20260508184609 15 62 1.6 3.2 0.00 0.00 0.00 70 1014.6
20260508183559 15 63 1.6 1.6 0.00 0.00 0.00 70 1014.4
20260508182558 15 56 1.6 3.2 0.00 0.00 0.00 68 1014.4
20260508181609 16 51 1.6 4.8 0.00 0.00 0.00 66 1014.2
20260508180559 16 46 3.2 4.8 0.00 0.00 0.00 66 1014.2
20260508175559 16 48 1.6 4.8 0.00 0.00 0.00 65 1014.1
20260508174559 16 58 1.6 4.8 0.00 0.00 0.00 64 1014.1
20260508173559 17 49 1.6 8.0 0.00 0.00 0.00 63 1014.0
20260508172600 17 47 3.2 4.8 0.00 0.00 0.00 60 1013.9
20260508171601 18 37 3.2 9.7 0.00 0.00 0.00 59 1013.9
20260508170602 18 44 3.2 8.0 0.00 0.00 0.00 59 1013.8
20260508165601 18 42 3.2 9.7 0.00 0.00 0.00 59 1013.9
20260508164602 18 38 3.2 9.7 0.00 0.00 0.00 59 1013.8
20260508163622 18 50 1.6 4.8 0.00 0.00 0.00 58 1013.7
20260508162603 18 34 3.2 8.0 0.00 0.00 0.00 58 1013.8
20260508161624 18 48 3.2 9.7 0.00 0.00 0.00 59 1013.8
20260508160603 19 61 1.6 8.0 0.00 0.00 0.00 56 1013.7
20260508155625 19 55 3.2 8.0 0.00 0.00 0.00 56 1013.7
20260508154645 18 54 1.6 4.8 0.00 0.00 0.00 56 1013.7
20260508153533 19 57 4.8 9.7 0.00 0.00 0.00 56 1013.8
20260508152533 19 58 3.2 9.7 0.00 0.00 0.00 56 1013.8
20260508151534 19 15 3.2 8.0 0.00 0.00 0.00 57 1013.9
20260508150534 20 54 3.2 9.7 0.00 0.00 0.00 56 1014.0
20260508145534 20 21 1.6 4.8 0.00 0.00 0.00 53 1014.1
20260508144535 19 46 3.2 8.0 0.00 0.00 0.00 57 1014.2
20260508143555 18 51 3.2 9.7 0.00 0.00 0.00 60 1014.2
20260508142536 18 49 3.2 9.7 0.00 0.00 0.00 60 1014.3
20260508141536 19 52 3.2 11.3 0.00 0.00 0.00 58 1014.1
20260508140536 18 48 3.2 11.3 0.00 0.00 0.00 58 1014.1
20260508135537 18 76 1.6 8.0 0.00 0.00 0.00 59 1014.3
20260508134558 18 72 1.6 4.8 0.00 0.00 0.00 62 1014.5
20260508133618 18 103 3.2 9.7 0.00 0.00 0.00 60 1014.5
20260508132538 19 155 3.2 11.3 0.00 0.00 0.00 59 1014.5
20260508131538 18 137 1.6 8.0 0.00 0.00 0.00 62 1014.7
20260508130539 17 116 1.6 4.8 0.00 0.00 0.00 64 1014.7
20260508125540 17 73 1.6 9.7 0.00 0.00 0.00 66 1014.8
20260508124549 17 60 1.6 3.2 0.00 0.00 0.00 66 1015.0
20260508123540 17 69 1.6 9.7 0.00 0.00 0.00 67 1014.9
20260508122542 16 47 1.6 4.8 0.00 0.00 0.00 69 1014.9
20260508121541 16 58 3.2 11.3 0.00 0.00 0.00 71 1014.8
20260508120541 16 22 1.6 4.8 0.00 0.00 0.00 73 1015.0
20260508115542 16 59 3.2 8.0 0.00 0.00 0.00 72 1015.1
20260508114543 16 74 1.6 4.8 0.00 0.00 0.00 74 1015.1
20260508113623 16 118 1.6 4.8 0.00 0.00 0.00 76 1015.2
20260508112543 16 182 3.2 8.0 0.00 0.00 0.00 75 1015.3
20260508111544 16 162 1.6 8.0 0.00 0.00 0.00 75 1015.4
20260508110545 15 45 1.6 3.2 0.00 0.00 0.00 76 1015.5
20260508105544 15 80 1.6 4.8 0.00 0.00 0.00 76 1015.6
20260508104545 15 147 1.6 4.8 0.00 0.00 0.00 78 1015.8
20260508103545 13 69 1.6 8.0 0.00 0.00 0.00 81 1015.9
20260508102546 13 83 1.6 4.8 0.00 0.00 0.00 83 1015.8
20260508101546 13 17 1.6 4.8 0.00 0.00 0.00 83 1015.9
20260508100546 13 124 1.6 4.8 0.00 0.00 0.00 83 1015.9
20260508095546 12 96 1.6 4.8 0.00 0.00 0.00 87 1015.8
20260508094547 11 60 1.6 3.2 0.00 0.00 0.00 88 1016.1
20260508093547 12 28 1.6 3.2 0.00 0.00 0.00 88 1016.2
20260508092550 11 61 1.6 3.2 0.00 0.00 0.00 90 1016.1
20260508091549 10 77 1.6 8.0 0.00 0.00 0.00 92 1016.1
20260508090549 10 56 3.2 8.0 0.00 0.00 0.00 94 1016.2
20260508085609 10 58 1.6 3.2 0.00 0.00 0.00 95 1016.2
20260508084550 10 52 1.6 4.8 0.00 0.00 0.00 96 1016.3
20260508083550 10 73 1.6 4.8 0.00 0.00 0.00 97 1016.1
20260508082550 9 78 1.6 4.8 0.00 0.00 0.00 98 1016.1
20260508081551 9 59 1.6 8.0 0.00 0.00 0.00 99 1016.1
20260508080551 9 57 1.6 8.0 0.00 0.00 0.00 99 1016.1
20260508075552 9 49 3.2 4.8 0.00 0.00 0.00 99 1015.8
20260508074552 10 67 1.6 3.2 0.00 0.00 0.00 99 1015.9
20260508073613 10 57 1.6 3.2 0.00 0.00 0.00 98 1015.9
20260508072613 9 100 1.6 4.8 0.00 0.00 0.00 99 1016.0
20260508071556 9 88 1.6 3.2 0.00 0.00 0.00 99 1015.9
20260508070606 8 75 1.6 3.2 0.00 0.00 0.00 99 1015.7
20260508065614 8 71 0.0 3.2 0.00 0.00 0.00 99 1015.7
20260508064555 8 71 0.0 1.6 0.00 0.00 0.00 99 1015.9
20260508063603 8 100 0.0 3.2 0.00 0.03 0.00 99 1015.9
20260508062600 8 148 1.6 3.2 0.00 0.03 0.00 99 1015.8
20260508061616 8 102 1.6 3.2 0.00 0.03 0.00 99 1015.6
20260508060556 8 102 1.6 3.2 0.00 0.03 0.00 99 1015.5
20260508055557 8 102 0.0 3.2 0.00 0.03 0.00 99 1015.5
20260508054558 7 127 1.6 4.8 0.00 0.03 0.00 99 1015.4
20260508053558 7 121 1.6 3.2 0.00 0.03 0.00 99 1015.2
20260508052559 7 130 1.6 4.8 0.00 0.03 0.00 99 1015.2
20260508051639 7 124 3.2 4.8 0.00 0.03 0.00 99 1015.2
20260508050600 8 110 1.6 8.0 0.00 0.03 0.00 99 1015.0
20260508045559 8 96 0.0 3.2 0.00 0.03 0.00 99 1015.0
20260508044532 8 107 1.6 4.8 0.00 0.03 0.00 99 1014.9
20260508043532 8 113 0.0 1.6 0.00 0.03 0.00 99 1014.9
20260508042533 7 99 0.0 3.2 0.00 0.03 0.00 99 1014.7
20260508041533 7 0.0 0.0 0.00 0.03 0.00 99 1014.7
20260508040553 7 0.0 0.0 0.00 0.03 0.00 99 1014.6
20260508035534 8 93 0.0 1.6 0.00 0.03 0.00 99 1014.7
20260508034535 8 0.0 0.0 0.00 0.03 0.00 99 1014.6
20260508033536 8 0.0 0.0 0.00 0.03 0.00 99 1014.5
20260508032536 8 52 0.0 1.6 0.00 0.03 0.00 99 1014.5
20260508031536 8 51 0.0 3.2 0.00 0.03 0.00 99 1014.4
20260508030536 8 0.0 1.6 0.00 0.03 0.00 99 1014.4
20260508025556 8 0.0 0.0 0.00 0.03 0.00 99 1014.6
20260508024536 8 0.0 0.0 0.00 0.03 0.00 99 1014.4
20260508023537 8 0.0 1.6 0.00 0.03 0.00 99 1014.4
20260508022538 8 0.0 1.6 0.00 0.03 0.00 99 1014.6
20260508021538 8 0.0 0.0 0.00 0.03 0.00 99 1014.6
20260508020558 8 0.0 1.6 0.00 0.03 0.00 99 1014.6
20260508015539 8 0.0 0.0 0.00 0.03 0.00 99 1014.7
20260508014539 8 98 0.0 1.6 0.00 0.03 0.00 99 1014.7
20260508013540 8 0.0 0.0 0.00 0.03 0.00 99 1014.7
20260508012540 8 0.0 0.0 0.00 0.03 0.00 99 1014.6
20260508011541 8 0.0 0.0 0.00 0.03 0.00 99 1014.6
20260508010603 8 0.0 0.0 0.00 0.03 0.00 99 1014.8
20260508005541 8 0.0 0.0 0.00 0.03 0.00 99 1014.8
20260508004542 8 74 0.0 1.6 0.00 0.03 0.00 99 1015.0
20260508003542 8 0.0 0.0 0.00 0.03 0.00 99 1015.0
20260508002543 8 0.0 0.0 0.00 0.05 0.00 99 1015.0
20260508001543 8 124 0.0 3.2 0.00 0.05 0.00 99 1015.0
20260508000543 8 111 0.0 1.6 0.00 0.05 0.00 99 1015.2
20260507235544 9 0.0 0.0 0.00 0.05 0.00 99 1015.1
20260507234604 9 0.0 0.0 0.00 0.05 0.00 99 1015.2
20260507233551 10 0.0 0.0 0.00 0.05 0.00 99 1015.3
20260507232545 10 92 0.0 1.6 0.00 0.05 0.00 99 1015.3
20260507231545 10 0.0 0.0 0.00 0.05 0.00 99 1015.6
20260507230546 10 0.0 0.0 0.00 0.05 0.00 99 1015.8
20260507225547 10 0.0 0.0 0.00 0.05 0.00 99 1015.8
20260507224607 10 100 0.0 1.6 0.00 0.05 0.00 99 1015.9
20260507223547 10 0.0 0.0 0.00 0.05 0.00 99 1015.8
20260507222548 10 0.0 0.0 0.00 0.05 0.00 99 1015.8
20260507221608 10 0.0 0.0 0.00 0.05 0.00 99 1015.7
20260507220549 10 0.0 0.0 0.00 0.05 0.00 99 1015.8
20260507215548 10 0.0 0.0 0.00 0.05 0.05 99 1015.6
20260507214549 10 0.0 0.0 0.00 0.05 0.05 99 1015.5
20260507213550 10 0.0 0.0 0.00 0.05 0.05 99 1015.5
20260507212550 10 0.0 0.0 0.00 0.05 0.05 99 1015.5
20260507211550 10 112 0.0 1.6 0.00 0.05 0.05 99 1015.4
20260507210551 10 114 1.6 3.2 0.00 0.05 0.05 99 1015.5
20260507205551 10 148 0.0 3.2 0.00 0.05 0.05 99 1015.6
20260507204552 10 126 0.0 1.6 0.00 0.05 0.05 97 1015.5
20260507203552 11 0.0 0.0 0.00 0.05 0.05 96 1015.4
20260507202552 11 0.0 0.0 0.00 0.05 0.05 96 1015.2
20260507201553 11 0.0 0.0 0.00 0.05 0.05 96 1015.2